Year,Month,Day,Hour,Minute,Value (Times are PST for temperature in C)
2010,07,10,00,00,19.50
2010,07,10,00,01,19.50
2010,07,10,00,02,19.50
2010,07,10,00,03,19.50
2010,07,10,00,04,19.50
2010,07,10,00,05,19.50
2010,07,10,00,06,19.50
2010,07,10,00,07,19.50
2010,07,10,00,08,19.50
2010,07,10,00,09,19.50
2010,07,10,00,10,19.50
2010,07,10,00,11,19.50
2010,07,10,00,12,19.50
2010,07,10,00,13,19.50
2010,07,10,00,14,19.50
2010,07,10,00,15,19.40
2010,07,10,00,16,19.40
2010,07,10,00,17,19.40
2010,07,10,00,18,19.40
2010,07,10,00,19,19.30
2010,07,10,00,20,19.30
2010,07,10,00,21,19.30
2010,07,10,00,22,19.20
2010,07,10,00,23,19.20
2010,07,10,00,24,19.20
2010,07,10,00,25,19.20
2010,07,10,00,26,19.10
2010,07,10,00,27,19.10
2010,07,10,00,28,19.10
2010,07,10,00,29,19.10
2010,07,10,00,30,19.10
2010,07,10,00,31,19.10
2010,07,10,00,32,19.00
2010,07,10,00,33,18.90
2010,07,10,00,34,18.90
2010,07,10,00,35,18.90
2010,07,10,00,36,18.90
2010,07,10,00,37,18.80
2010,07,10,00,38,18.80
2010,07,10,00,39,18.80
2010,07,10,00,40,18.70
2010,07,10,00,41,18.70
2010,07,10,00,42,18.70
2010,07,10,00,43,18.70
2010,07,10,00,44,18.60
2010,07,10,00,45,18.60
2010,07,10,00,46,18.60
2010,07,10,00,47,18.60
2010,07,10,00,48,18.60
2010,07,10,00,49,18.50
2010,07,10,00,50,18.50
2010,07,10,00,51,18.50
2010,07,10,00,52,18.50
2010,07,10,00,53,18.40
2010,07,10,00,54,18.40
2010,07,10,00,55,18.40
2010,07,10,00,56,18.40
2010,07,10,00,57,18.40
2010,07,10,00,58,18.40
2010,07,10,00,59,18.40
2010,07,10,01,00,18.40
2010,07,10,01,01,18.40
2010,07,10,01,02,18.40
2010,07,10,01,03,18.40
2010,07,10,01,04,18.40
2010,07,10,01,05,18.40
2010,07,10,01,06,18.30
2010,07,10,01,07,18.30
2010,07,10,01,08,18.30
2010,07,10,01,09,18.30
2010,07,10,01,10,18.30
2010,07,10,01,11,18.30
2010,07,10,01,12,18.30
2010,07,10,01,13,18.30
2010,07,10,01,14,18.20
2010,07,10,01,15,18.20
2010,07,10,01,16,18.20
2010,07,10,01,17,18.20
2010,07,10,01,18,18.20
2010,07,10,01,19,18.20
2010,07,10,01,20,18.20
2010,07,10,01,21,18.20
2010,07,10,01,22,18.10
2010,07,10,01,23,18.10
2010,07,10,01,24,18.00
2010,07,10,01,25,17.90
2010,07,10,01,26,17.90
2010,07,10,01,27,17.90
2010,07,10,01,28,17.90
2010,07,10,01,29,17.90
2010,07,10,01,30,17.80
2010,07,10,01,31,17.80
2010,07,10,01,32,17.80
2010,07,10,01,33,17.80
2010,07,10,01,34,17.70
2010,07,10,01,35,17.70
2010,07,10,01,36,17.70
2010,07,10,01,37,17.70
2010,07,10,01,38,17.70
2010,07,10,01,39,17.60
2010,07,10,01,40,17.60
2010,07,10,01,41,17.60
2010,07,10,01,42,17.60
2010,07,10,01,43,17.60
2010,07,10,01,44,17.60
2010,07,10,01,45,17.60
2010,07,10,01,46,17.50
2010,07,10,01,47,17.50
2010,07,10,01,48,17.50
2010,07,10,01,49,17.50
2010,07,10,01,50,17.50
2010,07,10,01,51,17.50
2010,07,10,01,52,17.40
2010,07,10,01,53,17.40
2010,07,10,01,54,17.40
2010,07,10,01,55,17.40
2010,07,10,01,56,17.40
2010,07,10,01,57,17.30
2010,07,10,01,58,17.30
2010,07,10,01,59,17.30
2010,07,10,02,00,17.30
2010,07,10,02,01,17.30
2010,07,10,02,02,17.30
2010,07,10,02,03,17.30
2010,07,10,02,04,17.30
2010,07,10,02,05,17.30
2010,07,10,02,06,17.30
2010,07,10,02,07,17.30
2010,07,10,02,08,17.30
2010,07,10,02,09,17.30
2010,07,10,02,10,17.30
2010,07,10,02,11,17.30
2010,07,10,02,12,17.30
2010,07,10,02,13,17.30
2010,07,10,02,14,17.30
2010,07,10,02,15,17.30
2010,07,10,02,16,17.30
2010,07,10,02,17,17.30
2010,07,10,02,18,17.30
2010,07,10,02,19,17.30
2010,07,10,02,20,17.30
2010,07,10,02,21,17.30
2010,07,10,02,22,17.30
2010,07,10,02,23,17.30
2010,07,10,02,24,17.30
2010,07,10,02,25,17.20
2010,07,10,02,26,17.20
2010,07,10,02,27,17.20
2010,07,10,02,28,17.20
2010,07,10,02,29,17.20
2010,07,10,02,30,17.20
2010,07,10,02,31,17.10
2010,07,10,02,32,17.10
2010,07,10,02,33,17.10
2010,07,10,02,34,17.10
2010,07,10,02,35,17.10
2010,07,10,02,36,17.00
2010,07,10,02,37,17.00
2010,07,10,02,38,17.00
2010,07,10,02,39,17.00
2010,07,10,02,40,17.00
2010,07,10,02,41,17.00
2010,07,10,02,42,17.00
2010,07,10,02,43,16.90
2010,07,10,02,44,16.90
2010,07,10,02,45,16.90
2010,07,10,02,46,16.90
2010,07,10,02,47,16.90
2010,07,10,02,48,16.90
2010,07,10,02,49,16.90
2010,07,10,02,50,16.90
2010,07,10,02,51,16.90
2010,07,10,02,52,16.80
2010,07,10,02,53,16.80
2010,07,10,02,54,16.80
2010,07,10,02,55,16.80
2010,07,10,02,56,16.80
2010,07,10,02,57,16.80
2010,07,10,02,58,16.80
2010,07,10,02,59,16.80
2010,07,10,03,00,16.80
2010,07,10,03,01,16.80
2010,07,10,03,02,16.80
2010,07,10,03,03,16.80
2010,07,10,03,04,16.80
2010,07,10,03,05,16.80
2010,07,10,03,06,16.80
2010,07,10,03,07,16.80
2010,07,10,03,08,16.80
2010,07,10,03,09,16.80
2010,07,10,03,10,16.80
2010,07,10,03,11,16.80
2010,07,10,03,12,16.80
2010,07,10,03,13,16.80
2010,07,10,03,14,16.80
2010,07,10,03,15,16.80
2010,07,10,03,16,16.80
2010,07,10,03,17,16.80
2010,07,10,03,18,16.80
2010,07,10,03,19,16.70
2010,07,10,03,20,16.70
2010,07,10,03,21,16.70
2010,07,10,03,22,16.70
2010,07,10,03,23,16.70
2010,07,10,03,24,16.70
2010,07,10,03,25,16.70
2010,07,10,03,26,16.70
2010,07,10,03,27,16.70
2010,07,10,03,28,16.70
2010,07,10,03,29,16.70
2010,07,10,03,30,16.70
2010,07,10,03,31,16.70
2010,07,10,03,32,16.70
2010,07,10,03,33,16.70
2010,07,10,03,34,16.60
2010,07,10,03,35,16.60
2010,07,10,03,36,16.60
2010,07,10,03,37,16.60
2010,07,10,03,38,16.60
2010,07,10,03,39,16.60
2010,07,10,03,40,16.60
2010,07,10,03,41,16.60
2010,07,10,03,42,16.60
2010,07,10,03,43,16.60
2010,07,10,03,44,16.60
2010,07,10,03,45,16.60
2010,07,10,03,46,16.60
2010,07,10,03,47,16.60
2010,07,10,03,48,16.60
2010,07,10,03,49,16.60
2010,07,10,03,50,16.60
2010,07,10,03,51,16.60
2010,07,10,03,52,16.60
2010,07,10,03,53,16.60
2010,07,10,03,54,16.60
2010,07,10,03,55,16.60
2010,07,10,03,56,16.60
2010,07,10,03,57,16.60
2010,07,10,03,58,16.60
2010,07,10,03,59,16.60
2010,07,10,04,00,16.60
2010,07,10,04,01,16.60
2010,07,10,04,02,16.60
2010,07,10,04,03,16.60
2010,07,10,04,04,16.60
2010,07,10,04,05,16.60
2010,07,10,04,06,16.60
2010,07,10,04,07,16.50
2010,07,10,04,08,16.40
2010,07,10,04,09,16.40
2010,07,10,04,10,16.40
2010,07,10,04,11,16.40
2010,07,10,04,12,16.40
2010,07,10,04,13,16.40
2010,07,10,04,14,16.40
2010,07,10,04,15,16.40
2010,07,10,04,16,16.40
2010,07,10,04,17,16.40
2010,07,10,04,18,16.40
2010,07,10,04,19,16.40
2010,07,10,04,20,16.40
2010,07,10,04,21,16.40
2010,07,10,04,22,16.40
2010,07,10,04,23,16.30
2010,07,10,04,24,16.30
2010,07,10,04,25,16.30
2010,07,10,04,26,16.30
2010,07,10,04,27,16.30
2010,07,10,04,28,16.30
2010,07,10,04,29,16.30
2010,07,10,04,30,16.30
2010,07,10,04,31,16.30
2010,07,10,04,32,16.20
2010,07,10,04,33,16.20
2010,07,10,04,34,16.20
2010,07,10,04,35,16.20
2010,07,10,04,36,16.10
2010,07,10,04,37,16.10
2010,07,10,04,38,16.10
2010,07,10,04,39,16.10
2010,07,10,04,40,16.10
2010,07,10,04,41,16.10
2010,07,10,04,42,16.10
2010,07,10,04,43,16.10
2010,07,10,04,44,16.10
2010,07,10,04,45,16.10
2010,07,10,04,46,16.10
2010,07,10,04,47,16.10
2010,07,10,04,48,16.00
2010,07,10,04,49,15.90
2010,07,10,04,50,15.90
2010,07,10,04,51,15.90
2010,07,10,04,52,15.90
2010,07,10,04,53,15.90
2010,07,10,04,54,15.90
2010,07,10,04,55,15.90
2010,07,10,04,56,15.90
2010,07,10,04,57,15.90
2010,07,10,04,58,15.90
2010,07,10,04,59,15.90
2010,07,10,05,00,15.90
2010,07,10,05,01,15.90
2010,07,10,05,02,15.90
2010,07,10,05,03,15.90
2010,07,10,05,04,15.90
2010,07,10,05,05,15.90
2010,07,10,05,06,15.90
2010,07,10,05,07,15.90
2010,07,10,05,08,15.90
2010,07,10,05,09,15.90
2010,07,10,05,10,15.80
2010,07,10,05,11,15.80
2010,07,10,05,12,15.80
2010,07,10,05,13,15.80
2010,07,10,05,14,15.80
2010,07,10,05,15,15.80
2010,07,10,05,16,15.80
2010,07,10,05,17,15.80
2010,07,10,05,18,15.80
2010,07,10,05,19,15.80
2010,07,10,05,20,15.80
2010,07,10,05,21,15.80
2010,07,10,05,22,15.80
2010,07,10,05,23,15.80
2010,07,10,05,24,15.80
2010,07,10,05,25,15.80
2010,07,10,05,26,15.80
2010,07,10,05,27,15.80
2010,07,10,05,28,15.70
2010,07,10,05,29,15.70
2010,07,10,05,30,15.70
2010,07,10,05,31,15.70
2010,07,10,05,32,15.70
2010,07,10,05,33,15.70
2010,07,10,05,34,15.70
2010,07,10,05,35,15.70
2010,07,10,05,36,15.60
2010,07,10,05,37,15.60
2010,07,10,05,38,15.60
2010,07,10,05,39,15.60
2010,07,10,05,40,15.60
2010,07,10,05,41,15.60
2010,07,10,05,42,15.60
2010,07,10,05,43,15.60
2010,07,10,05,44,15.60
2010,07,10,05,45,15.60
2010,07,10,05,46,15.60
2010,07,10,05,47,15.50
2010,07,10,05,48,15.50
2010,07,10,05,49,15.50
2010,07,10,05,50,15.50
2010,07,10,05,51,15.50
2010,07,10,05,52,15.50
2010,07,10,05,53,15.50
2010,07,10,05,54,15.40
2010,07,10,05,55,15.40
2010,07,10,05,56,15.40
2010,07,10,05,57,15.40
2010,07,10,05,58,15.40
2010,07,10,05,59,15.30
2010,07,10,06,00,15.30
2010,07,10,06,01,15.30
2010,07,10,06,02,15.30
2010,07,10,06,03,15.30
2010,07,10,06,04,15.30
2010,07,10,06,05,15.30
2010,07,10,06,06,15.30
2010,07,10,06,07,15.30
2010,07,10,06,08,15.30
2010,07,10,06,09,15.20
2010,07,10,06,10,15.20
2010,07,10,06,11,15.20
2010,07,10,06,12,15.20
2010,07,10,06,13,15.20
2010,07,10,06,14,15.20
2010,07,10,06,15,15.20
2010,07,10,06,16,15.10
2010,07,10,06,17,15.10
2010,07,10,06,18,15.10
2010,07,10,06,19,15.10
2010,07,10,06,20,15.00
2010,07,10,06,21,15.00
2010,07,10,06,22,15.00
2010,07,10,06,23,14.90
2010,07,10,06,24,14.90
2010,07,10,06,25,14.90
2010,07,10,06,26,14.90
2010,07,10,06,27,14.80
2010,07,10,06,28,14.80
2010,07,10,06,29,14.80
2010,07,10,06,30,14.80
2010,07,10,06,31,14.80
2010,07,10,06,32,14.80
2010,07,10,06,33,14.80
2010,07,10,06,34,14.80
2010,07,10,06,35,14.80
2010,07,10,06,36,14.80
2010,07,10,06,37,14.80
2010,07,10,06,38,14.80
2010,07,10,06,39,14.80
2010,07,10,06,40,14.90
2010,07,10,06,41,14.90
2010,07,10,06,42,14.90
2010,07,10,06,43,14.90
2010,07,10,06,44,15.00
2010,07,10,06,45,15.00
2010,07,10,06,46,15.00
2010,07,10,06,47,15.10
2010,07,10,06,48,15.20
2010,07,10,06,49,15.20
2010,07,10,06,50,15.30
2010,07,10,06,51,15.30
2010,07,10,06,52,15.40
2010,07,10,06,53,15.50
2010,07,10,06,54,15.50
2010,07,10,06,55,15.60
2010,07,10,06,56,15.60
2010,07,10,06,57,15.70
2010,07,10,06,58,15.80
2010,07,10,06,59,15.80
2010,07,10,07,00,15.90
2010,07,10,07,01,15.90
2010,07,10,07,02,16.00
2010,07,10,07,03,16.10
2010,07,10,07,04,16.10
2010,07,10,07,05,16.20
2010,07,10,07,06,16.20
2010,07,10,07,07,16.30
2010,07,10,07,08,16.30
2010,07,10,07,09,16.40
2010,07,10,07,10,16.40
2010,07,10,07,11,16.40
2010,07,10,07,12,16.40
2010,07,10,07,13,16.50
2010,07,10,07,14,16.60
2010,07,10,07,15,16.60
2010,07,10,07,16,16.70
2010,07,10,07,17,16.70
2010,07,10,07,18,16.80
2010,07,10,07,19,16.80
2010,07,10,07,20,16.90
2010,07,10,07,21,17.00
2010,07,10,07,22,17.00
2010,07,10,07,23,17.00
2010,07,10,07,24,17.10
2010,07,10,07,25,17.10
2010,07,10,07,26,17.20
2010,07,10,07,27,17.30
2010,07,10,07,28,17.30
2010,07,10,07,29,17.30
2010,07,10,07,30,17.40
2010,07,10,07,31,17.50
2010,07,10,07,32,17.50
2010,07,10,07,33,17.60
2010,07,10,07,34,17.70
2010,07,10,07,35,17.70
2010,07,10,07,36,17.70
2010,07,10,07,37,17.70
2010,07,10,07,38,17.70
2010,07,10,07,39,17.70
2010,07,10,07,40,17.70
2010,07,10,07,41,17.80
2010,07,10,07,42,17.80
2010,07,10,07,43,17.90
2010,07,10,07,44,17.90
2010,07,10,07,45,17.90
2010,07,10,07,46,18.00
2010,07,10,07,47,18.10
2010,07,10,07,48,18.20
2010,07,10,07,49,18.20
2010,07,10,07,50,18.20
2010,07,10,07,51,18.20
2010,07,10,07,52,18.20
2010,07,10,07,53,18.20
2010,07,10,07,54,18.10
2010,07,10,07,55,18.00
2010,07,10,07,56,17.90
2010,07,10,07,57,17.90
2010,07,10,07,58,17.70
2010,07,10,07,59,17.70
2010,07,10,08,00,17.60
2010,07,10,08,01,17.60
2010,07,10,08,02,17.60
2010,07,10,08,03,17.60
2010,07,10,08,04,17.70
2010,07,10,08,05,17.70
2010,07,10,08,06,17.70
2010,07,10,08,07,17.70
2010,07,10,08,08,17.70
2010,07,10,08,09,17.70
2010,07,10,08,10,17.60
2010,07,10,08,11,17.60
2010,07,10,08,12,17.50
2010,07,10,08,13,17.60
2010,07,10,08,14,17.60
2010,07,10,08,15,17.60
2010,07,10,08,16,17.60
2010,07,10,08,17,17.60
2010,07,10,08,18,17.60
2010,07,10,08,19,17.60
2010,07,10,08,20,17.60
2010,07,10,08,21,17.60
2010,07,10,08,22,17.60
2010,07,10,08,23,17.70
2010,07,10,08,24,17.70
2010,07,10,08,25,17.70
2010,07,10,08,26,17.80
2010,07,10,08,27,17.90
2010,07,10,08,28,17.90
2010,07,10,08,29,18.00
2010,07,10,08,30,18.10
2010,07,10,08,31,18.20
2010,07,10,08,32,18.20
2010,07,10,08,33,18.30
2010,07,10,08,34,18.40
2010,07,10,08,35,18.40
2010,07,10,08,36,18.40
2010,07,10,08,37,18.40
2010,07,10,08,38,18.40
2010,07,10,08,39,18.40
2010,07,10,08,40,18.50
2010,07,10,08,41,18.50
2010,07,10,08,42,18.60
2010,07,10,08,43,18.70
2010,07,10,08,44,18.80
2010,07,10,08,45,18.80
2010,07,10,08,46,18.80
2010,07,10,08,47,18.90
2010,07,10,08,48,18.90
2010,07,10,08,49,18.90
2010,07,10,08,50,18.90
2010,07,10,08,51,18.90
2010,07,10,08,52,18.90
2010,07,10,08,53,18.70
2010,07,10,08,54,18.70
2010,07,10,08,55,18.70
2010,07,10,08,56,18.60
2010,07,10,08,57,18.60
2010,07,10,08,58,18.60
2010,07,10,08,59,18.60
2010,07,10,09,00,18.50
2010,07,10,09,01,18.60
2010,07,10,09,02,18.70
2010,07,10,09,03,18.80
2010,07,10,09,04,18.70
2010,07,10,09,05,18.70
2010,07,10,09,06,18.70
2010,07,10,09,07,18.60
2010,07,10,09,08,18.50
2010,07,10,09,09,18.50
2010,07,10,09,10,18.40
2010,07,10,09,11,18.50
2010,07,10,09,12,18.50
2010,07,10,09,13,18.60
2010,07,10,09,14,18.60
2010,07,10,09,15,18.60
2010,07,10,09,16,18.60
2010,07,10,09,17,18.50
2010,07,10,09,18,18.40
2010,07,10,09,19,18.30
2010,07,10,09,20,18.40
2010,07,10,09,21,18.50
2010,07,10,09,22,18.50
2010,07,10,09,23,18.60
2010,07,10,09,24,18.60
2010,07,10,09,25,18.50
2010,07,10,09,26,18.50
2010,07,10,09,27,18.60
2010,07,10,09,28,18.70
2010,07,10,09,29,18.80
2010,07,10,09,30,18.90
2010,07,10,09,31,18.90
2010,07,10,09,32,18.80
2010,07,10,09,33,18.80
2010,07,10,09,34,18.90
2010,07,10,09,35,19.00
2010,07,10,09,36,19.10
2010,07,10,09,37,19.10
2010,07,10,09,38,19.10
2010,07,10,09,39,19.20
2010,07,10,09,40,19.30
2010,07,10,09,41,19.30
2010,07,10,09,42,19.40
2010,07,10,09,43,19.40
2010,07,10,09,44,19.40
2010,07,10,09,45,19.50
2010,07,10,09,46,19.50
2010,07,10,09,47,19.60
2010,07,10,09,48,19.70
2010,07,10,09,49,19.70
2010,07,10,09,50,19.80
2010,07,10,09,51,19.90
2010,07,10,09,52,19.90
2010,07,10,09,53,19.90
2010,07,10,09,54,19.90
2010,07,10,09,55,19.90
2010,07,10,09,56,19.90
2010,07,10,09,57,20.00
2010,07,10,09,58,20.10
2010,07,10,09,59,20.10
2010,07,10,10,00,20.10
2010,07,10,10,01,20.10
2010,07,10,10,02,20.20
2010,07,10,10,03,20.20
2010,07,10,10,04,20.40
2010,07,10,10,05,20.50
2010,07,10,10,06,20.60
2010,07,10,10,07,20.60
2010,07,10,10,08,20.70
2010,07,10,10,09,20.70
2010,07,10,10,10,20.70
2010,07,10,10,11,20.60
2010,07,10,10,12,20.60
2010,07,10,10,13,20.50
2010,07,10,10,14,20.60
2010,07,10,10,15,20.70
2010,07,10,10,16,20.60
2010,07,10,10,17,20.50
2010,07,10,10,18,20.50
2010,07,10,10,19,20.40
2010,07,10,10,20,20.40
2010,07,10,10,21,20.50
2010,07,10,10,22,20.60
2010,07,10,10,23,20.70
2010,07,10,10,24,20.80
2010,07,10,10,25,20.90
2010,07,10,10,26,21.00
2010,07,10,10,27,21.00
2010,07,10,10,28,21.00
2010,07,10,10,29,21.10
2010,07,10,10,30,21.20
2010,07,10,10,31,21.10
2010,07,10,10,32,21.00
2010,07,10,10,33,21.00
2010,07,10,10,34,21.10
2010,07,10,10,35,21.20
2010,07,10,10,36,21.00
2010,07,10,10,37,20.80
2010,07,10,10,38,20.70
2010,07,10,10,39,20.70
2010,07,10,10,40,20.50
2010,07,10,10,41,20.40
2010,07,10,10,42,20.50
2010,07,10,10,43,20.50
2010,07,10,10,44,20.50
2010,07,10,10,45,20.50
2010,07,10,10,46,20.50
2010,07,10,10,47,20.50
2010,07,10,10,48,20.50
2010,07,10,10,49,20.60
2010,07,10,10,50,20.80
2010,07,10,10,51,20.90
2010,07,10,10,52,21.10
2010,07,10,10,53,21.20
2010,07,10,10,54,21.30
2010,07,10,10,55,21.30
2010,07,10,10,56,21.30
2010,07,10,10,57,21.30
2010,07,10,10,58,21.30
2010,07,10,10,59,21.30
2010,07,10,11,00,21.30
2010,07,10,11,01,21.20
2010,07,10,11,02,21.30
2010,07,10,11,03,21.30
2010,07,10,11,04,21.30
2010,07,10,11,05,21.30
2010,07,10,11,06,21.30
2010,07,10,11,07,21.20
2010,07,10,11,08,21.10
2010,07,10,11,09,21.00
2010,07,10,11,10,21.10
2010,07,10,11,11,21.10
2010,07,10,11,12,21.10
2010,07,10,11,13,21.10
2010,07,10,11,14,21.10
2010,07,10,11,15,21.00
2010,07,10,11,16,20.90
2010,07,10,11,17,20.90
2010,07,10,11,18,20.80
2010,07,10,11,19,20.80
2010,07,10,11,20,21.00
2010,07,10,11,21,21.10
2010,07,10,11,22,21.30
2010,07,10,11,23,21.30
2010,07,10,11,24,21.20
2010,07,10,11,25,21.30
2010,07,10,11,26,21.30
2010,07,10,11,27,21.30
2010,07,10,11,28,21.30
2010,07,10,11,29,21.20
2010,07,10,11,30,21.10
2010,07,10,11,31,21.20
2010,07,10,11,32,21.30
2010,07,10,11,33,21.30
2010,07,10,11,34,21.40
2010,07,10,11,35,21.40
2010,07,10,11,36,21.40
2010,07,10,11,37,21.30
2010,07,10,11,38,21.40
2010,07,10,11,39,21.50
2010,07,10,11,40,21.60
2010,07,10,11,41,21.60
2010,07,10,11,42,21.60
2010,07,10,11,43,21.60
2010,07,10,11,44,21.60
2010,07,10,11,45,21.40
2010,07,10,11,46,21.30
2010,07,10,11,47,21.30
2010,07,10,11,48,21.40
2010,07,10,11,49,21.60
2010,07,10,11,50,21.60
2010,07,10,11,51,21.60
2010,07,10,11,52,21.60
2010,07,10,11,53,21.60
2010,07,10,11,54,21.60
2010,07,10,11,55,21.50
2010,07,10,11,56,21.40
2010,07,10,11,57,21.30
2010,07,10,11,58,21.30
2010,07,10,11,59,21.30
2010,07,10,12,00,21.30
2010,07,10,12,01,21.20
2010,07,10,12,02,21.10
2010,07,10,12,03,21.10
2010,07,10,12,04,21.10
2010,07,10,12,05,21.20
2010,07,10,12,06,21.30
2010,07,10,12,07,21.40
2010,07,10,12,08,21.60
2010,07,10,12,09,21.70
2010,07,10,12,10,21.80
2010,07,10,12,11,21.90
2010,07,10,12,12,22.10
2010,07,10,12,13,22.20
2010,07,10,12,14,22.30
2010,07,10,12,15,22.30
2010,07,10,12,16,22.30
2010,07,10,12,17,22.40
2010,07,10,12,18,22.50
2010,07,10,12,19,22.40
2010,07,10,12,20,22.30
2010,07,10,12,21,22.20
2010,07,10,12,22,22.10
2010,07,10,12,23,22.00
2010,07,10,12,24,22.00
2010,07,10,12,25,21.90
2010,07,10,12,26,21.80
2010,07,10,12,27,21.80
2010,07,10,12,28,21.90
2010,07,10,12,29,22.10
2010,07,10,12,30,22.30
2010,07,10,12,31,22.50
2010,07,10,12,32,22.60
2010,07,10,12,33,22.70
2010,07,10,12,34,22.80
2010,07,10,12,35,22.90
2010,07,10,12,36,22.90
2010,07,10,12,37,22.90
2010,07,10,12,38,23.00
2010,07,10,12,39,23.20
2010,07,10,12,40,23.30
2010,07,10,12,41,23.30
2010,07,10,12,42,23.20
2010,07,10,12,43,23.10
2010,07,10,12,44,23.10
2010,07,10,12,45,23.20
2010,07,10,12,46,23.20
2010,07,10,12,47,23.20
2010,07,10,12,48,23.20
2010,07,10,12,49,23.20
2010,07,10,12,50,23.10
2010,07,10,12,51,23.10
2010,07,10,12,52,23.20
2010,07,10,12,53,23.30
2010,07,10,12,54,23.30
2010,07,10,12,55,23.30
2010,07,10,12,56,23.30
2010,07,10,12,57,23.30
2010,07,10,12,58,23.20
2010,07,10,12,59,23.20
2010,07,10,13,00,23.20
2010,07,10,13,01,23.10
2010,07,10,13,02,23.00
2010,07,10,13,03,22.90
2010,07,10,13,04,23.00
2010,07,10,13,05,23.10
2010,07,10,13,06,23.00
2010,07,10,13,07,22.90
2010,07,10,13,08,22.90
2010,07,10,13,09,22.80
2010,07,10,13,10,22.90
2010,07,10,13,11,23.00
2010,07,10,13,12,23.10
2010,07,10,13,13,23.00
2010,07,10,13,14,23.10
2010,07,10,13,15,23.10
2010,07,10,13,16,23.10
2010,07,10,13,17,23.00
2010,07,10,13,18,23.10
2010,07,10,13,19,23.30
2010,07,10,13,20,23.40
2010,07,10,13,21,23.40
2010,07,10,13,22,23.30
2010,07,10,13,23,23.30
2010,07,10,13,24,23.30
2010,07,10,13,25,23.40
2010,07,10,13,26,23.30
2010,07,10,13,27,23.30
2010,07,10,13,28,23.30
2010,07,10,13,29,23.30
2010,07,10,13,30,23.30
2010,07,10,13,31,23.30
2010,07,10,13,32,23.40
2010,07,10,13,33,23.40
2010,07,10,13,34,23.30
2010,07,10,13,35,23.30
2010,07,10,13,36,23.40
2010,07,10,13,37,23.40
2010,07,10,13,38,23.40
2010,07,10,13,39,23.40
2010,07,10,13,40,23.30
2010,07,10,13,41,23.30
2010,07,10,13,42,23.30
2010,07,10,13,43,23.30
2010,07,10,13,44,23.30
2010,07,10,13,45,23.30
2010,07,10,13,46,23.30
2010,07,10,13,47,23.20
2010,07,10,13,48,23.20
2010,07,10,13,49,23.20
2010,07,10,13,50,23.30
2010,07,10,13,51,23.40
2010,07,10,13,52,23.40
2010,07,10,13,53,23.40
2010,07,10,13,54,23.60
2010,07,10,13,55,23.70
2010,07,10,13,56,23.70
2010,07,10,13,57,23.90
2010,07,10,13,58,24.00
2010,07,10,13,59,24.10
2010,07,10,14,00,24.10
2010,07,10,14,01,24.20
2010,07,10,14,02,24.40
2010,07,10,14,03,24.50
2010,07,10,14,04,24.60
2010,07,10,14,05,24.60
2010,07,10,14,06,24.60
2010,07,10,14,07,24.60
2010,07,10,14,08,24.60
2010,07,10,14,09,24.60
2010,07,10,14,10,24.60
2010,07,10,14,11,24.60
2010,07,10,14,12,24.50
2010,07,10,14,13,24.50
2010,07,10,14,14,24.40
2010,07,10,14,15,24.50
2010,07,10,14,16,24.50
2010,07,10,14,17,24.50
2010,07,10,14,18,24.60
2010,07,10,14,19,24.50
2010,07,10,14,20,24.50
2010,07,10,14,21,24.40
2010,07,10,14,22,24.40
2010,07,10,14,23,24.40
2010,07,10,14,24,24.50
2010,07,10,14,25,24.40
2010,07,10,14,26,24.30
2010,07,10,14,27,24.20
2010,07,10,14,28,24.20
2010,07,10,14,29,24.30
2010,07,10,14,30,24.50
2010,07,10,14,31,24.60
2010,07,10,14,32,24.70
2010,07,10,14,33,24.80
2010,07,10,14,34,24.80
2010,07,10,14,35,24.90
2010,07,10,14,36,24.90
2010,07,10,14,37,24.90
2010,07,10,14,38,24.90
2010,07,10,14,39,25.00
2010,07,10,14,40,24.90
2010,07,10,14,41,24.90
2010,07,10,14,42,24.90
2010,07,10,14,43,24.90
2010,07,10,14,44,24.80
2010,07,10,14,45,24.80
2010,07,10,14,46,24.80
2010,07,10,14,47,24.90
2010,07,10,14,48,25.10
2010,07,10,14,49,25.20
2010,07,10,14,50,25.20
2010,07,10,14,51,25.30
2010,07,10,14,52,25.20
2010,07,10,14,53,25.00
2010,07,10,14,54,24.90
2010,07,10,14,55,24.90
2010,07,10,14,56,24.80
2010,07,10,14,57,24.60
2010,07,10,14,58,24.60
2010,07,10,14,59,24.60
2010,07,10,15,00,24.70
2010,07,10,15,01,24.80
2010,07,10,15,02,24.90
2010,07,10,15,03,24.90
2010,07,10,15,04,24.90
2010,07,10,15,05,24.80
2010,07,10,15,06,24.80
2010,07,10,15,07,24.90
2010,07,10,15,08,24.90
2010,07,10,15,09,24.90
2010,07,10,15,10,25.00
2010,07,10,15,11,25.10
2010,07,10,15,12,25.10
2010,07,10,15,13,25.10
2010,07,10,15,14,24.90
2010,07,10,15,15,24.60
2010,07,10,15,16,24.50
2010,07,10,15,17,24.50
2010,07,10,15,18,24.50
2010,07,10,15,19,24.50
2010,07,10,15,20,24.50
2010,07,10,15,21,24.50
2010,07,10,15,22,24.50
2010,07,10,15,23,24.40
2010,07,10,15,24,24.50
2010,07,10,15,25,24.40
2010,07,10,15,26,24.40
2010,07,10,15,27,24.40
2010,07,10,15,28,24.40
2010,07,10,15,29,24.40
2010,07,10,15,30,24.50
2010,07,10,15,31,24.50
2010,07,10,15,32,24.40
2010,07,10,15,33,24.30
2010,07,10,15,34,24.30
2010,07,10,15,35,24.20
2010,07,10,15,36,24.20
2010,07,10,15,37,24.10
2010,07,10,15,38,24.20
2010,07,10,15,39,24.30
2010,07,10,15,40,24.30
2010,07,10,15,41,24.30
2010,07,10,15,42,24.30
2010,07,10,15,43,24.30
2010,07,10,15,44,24.30
2010,07,10,15,45,24.30
2010,07,10,15,46,24.30
2010,07,10,15,47,24.20
2010,07,10,15,48,24.20
2010,07,10,15,49,24.30
2010,07,10,15,50,24.30
2010,07,10,15,51,24.30
2010,07,10,15,52,24.30
2010,07,10,15,53,24.30
2010,07,10,15,54,24.30
2010,07,10,15,55,24.30
2010,07,10,15,56,24.40
2010,07,10,15,57,24.60
2010,07,10,15,58,24.80
2010,07,10,15,59,24.70
2010,07,10,16,00,24.80
2010,07,10,16,01,24.80
2010,07,10,16,02,24.90
2010,07,10,16,03,24.90
2010,07,10,16,04,24.80
2010,07,10,16,05,24.60
2010,07,10,16,06,24.50
2010,07,10,16,07,24.50
2010,07,10,16,08,24.40
2010,07,10,16,09,24.40
2010,07,10,16,10,24.50
2010,07,10,16,11,24.60
2010,07,10,16,12,24.80
2010,07,10,16,13,24.90
2010,07,10,16,14,25.00
2010,07,10,16,15,25.00
2010,07,10,16,16,25.00
2010,07,10,16,17,24.90
2010,07,10,16,18,24.90
2010,07,10,16,19,24.90
2010,07,10,16,20,24.90
2010,07,10,16,21,24.90
2010,07,10,16,22,24.90
2010,07,10,16,23,24.90
2010,07,10,16,24,24.90
2010,07,10,16,25,25.00
2010,07,10,16,26,25.10
2010,07,10,16,27,25.20
2010,07,10,16,28,25.20
2010,07,10,16,29,25.10
2010,07,10,16,30,25.00
2010,07,10,16,31,24.90
2010,07,10,16,32,24.90
2010,07,10,16,33,24.90
2010,07,10,16,34,25.00
2010,07,10,16,35,25.00
2010,07,10,16,36,25.20
2010,07,10,16,37,25.40
2010,07,10,16,38,25.40
2010,07,10,16,39,25.40
2010,07,10,16,40,25.40
2010,07,10,16,41,25.60
2010,07,10,16,42,25.70
2010,07,10,16,43,25.80
2010,07,10,16,44,25.80
2010,07,10,16,45,25.80
2010,07,10,16,46,25.80
2010,07,10,16,47,25.90
2010,07,10,16,48,25.80
2010,07,10,16,49,25.80
2010,07,10,16,50,25.70
2010,07,10,16,51,25.50
2010,07,10,16,52,25.40
2010,07,10,16,53,25.30
2010,07,10,16,54,25.30
2010,07,10,16,55,25.30
2010,07,10,16,56,25.30
2010,07,10,16,57,25.40
2010,07,10,16,58,25.30
2010,07,10,16,59,25.30
2010,07,10,17,00,25.40
2010,07,10,17,01,25.40
2010,07,10,17,02,25.50
2010,07,10,17,03,25.50
2010,07,10,17,04,25.50
2010,07,10,17,05,25.50
2010,07,10,17,06,25.60
2010,07,10,17,07,25.70
2010,07,10,17,08,25.70
2010,07,10,17,09,25.80
2010,07,10,17,10,25.90
2010,07,10,17,11,25.90
2010,07,10,17,12,25.90
2010,07,10,17,13,25.80
2010,07,10,17,14,25.80
2010,07,10,17,15,25.70
2010,07,10,17,16,25.70
2010,07,10,17,17,25.70
2010,07,10,17,18,25.60
2010,07,10,17,19,25.70